[[{"header":{"parameterUnit":"m.s-1","parameterCategory":1,"la1":30.2991,"la2":30.254,"lo1":-89.0895,"lo2":-89.0444,"dy":0.0017,"dx":0.0017,"nx":28,"ny":28,"refTime":"2024-06-29T09:00:00:Z","depth":0,"parameterNumber":2,"parameterNumberName":"U-component_of_WINDS"},"data":[0,0,0,0,0,0,0,0,0,0,0,0,0,0,0,0,0,0,0,0,0,0,0,0,0,0,0,0,0,0,0,0,0,0,0,0,0,0,0,0,0,0,0,0,0,0,0,0,0,0,0,0,0,0,0,0,0,0,3.0563,3.0564,0,3.0709,3.0711,3.0712,3.0713,3.0711,3.0709,3.0708,3.0858,3.0864,3.0869,0,0,0,0,0,0,0,0,0,0,0,0,0,3.0284,3.0289,3.0563,3.0565,3.0566,3.0709,3.0711,3.0713,3.0714,3.0711,3.0709,3.0707,3.0856,3.0863,3.087,0,0,0,0,0,0,0,0,0,0,0,0,0,3.0415,3.0291,3.0562,3.0584,3.0587,3.0708,3.0711,3.0713,3.0714,3.0711,3.0708,3.0706,3.0854,3.0862,3.0871,3.098,0,0,3.0897,3.0901,0,0,0,0,0,0,0,0,3.0407,3.0425,3.0579,3.0583,3.0587,3.069,3.0667,3.0803,3.0715,3.0666,3.0708,3.0704,3.0804,3.0817,3.0851,3.0987,3.0994,3.0898,3.0903,3.0907,3.0909,0,0,0,0,0,0,0,3.0398,3.0419,3.0621,3.0581,3.0586,3.0586,3.0602,3.0693,3.0749,3.067,3.067,3.0688,3.0806,3.0842,3.0854,3.0996,3.0898,3.0905,3.0911,3.0914,3.1227,3.123,0,0,0,0,0,0,3.0385,3.0411,3.0616,3.0625,3.0488,3.0593,3.0611,3.066,3.0748,3.0759,3.069,3.0687,3.0829,3.0844,3.0859,3.0991,3.0907,3.0915,3.092,3.1224,3.1228,3.1231,0,0,0,0,0,0,3.0379,3.0403,3.061,3.0518,3.0545,3.0601,3.0656,3.0664,3.07,3.0763,3.0773,3.0717,3.0827,3.0847,3.0949,3.0996,3.0919,3.0927,3.122,3.1225,3.1229,3.1256,0,0,0,0,0,0,3.0371,3.0401,3.0443,3.0519,3.055,3.0698,3.0659,3.0669,3.0715,3.0713,3.0791,3.0801,3.0827,3.0937,3.0958,3.1007,3.0933,3.1216,3.1222,3.1228,3.1251,3.1261,3.127,0,0,0,0,0,3.0361,3.0446,3.0445,3.047,3.0604,3.0701,3.0718,3.0745,3.0719,3.0761,3.0802,3.0799,3.0988,3.0947,3.0971,3.1023,3.1213,3.1221,3.1227,3.1247,3.1259,3.1269,0,0,0,0,0,0,3.0375,3.0456,3.0457,3.0569,3.0628,3.07,3.0755,3.0758,3.0825,3.082,3.0852,3.087,3.0971,3.1008,3.096,3.1132,3.1097,3.111,3.1104,3.1116,3.1125,3.1113,3.094,0,0,0,0,0,3.039,3.0462,3.053,3.0622,3.0652,3.0698,3.0742,3.0758,3.082,3.0845,3.0893,3.0953,3.1026,3.1074,3.1145,3.1257,3.1273,3.1305,3.1314,3.1321,3.1331,3.139,3.1404,3.1254,3.1254,3.1254,0,0,3.0424,3.0478,3.0521,3.0626,3.0674,3.0747,3.0719,3.0799,3.0852,3.0857,3.0955,3.0993,3.1063,3.117,3.1219,3.1204,3.1376,3.133,3.1335,3.1341,3.1399,3.1413,3.1426,3.1259,3.1258,3.1257,0,0,3.0522,3.0571,3.0652,3.07,3.0772,3.0802,3.0821,3.0894,3.0918,3.1018,3.1022,3.1087,3.1213,3.1262,3.1303,3.1418,3.1417,3.1441,3.1488,3.1545,3.1557,3.1568,3.1606,3.162,3.145,3.145,3.1451,0,3.0555,3.0665,3.0693,3.0772,3.0817,3.0824,3.0905,3.0951,3.1042,3.1073,3.1054,3.121,3.1258,3.1375,3.1403,3.1437,3.1459,3.1431,3.1553,3.1564,3.1574,3.1611,3.1626,3.1453,3.1452,3.1452,3.1452,0,3.07,3.0777,3.0833,3.092,3.0972,3.1052,3.1091,3.1141,3.1152,3.1184,3.1284,3.1342,3.1423,3.1452,3.1465,3.1571,3.1559,3.1547,3.1512,3.159,3.1625,3.164,3.1456,3.1455,3.1454,3.1454,0,0,3.081,3.0911,3.0931,3.0969,3.1049,3.1108,3.1188,3.1267,3.1307,3.137,3.1436,3.1542,3.153,3.1577,3.1595,3.1647,3.1731,3.1628,3.163,3.1642,3.1848,3.1855,3.1871,3.1731,3.1734,3.1737,3.1841,0,3.0914,3.1055,3.1082,3.1204,3.1274,3.1281,3.135,3.1406,3.1438,3.1502,3.1537,3.161,3.1591,3.1619,3.167,3.1709,3.1772,3.1703,3.1792,3.1794,3.1771,3.189,3.1897,3.1993,3.1855,3.1858,3.186,0,3.1055,3.112,3.1248,3.1316,3.1346,3.1408,3.1481,3.1543,3.1606,3.1625,3.1677,3.1689,3.1771,3.1734,3.1846,3.1798,3.1837,3.1861,3.1866,3.1873,3.183,3.1897,3.2025,3.2038,3.1882,3.188,3.1879,0,3.1118,3.1238,3.133,3.1363,3.1446,3.1488,3.1525,3.1585,3.163,3.1695,3.1724,3.1798,3.1837,3.1894,3.1925,3.1896,3.2034,3.2,3.2051,3.205,3.2078,3.2075,3.221,3.2107,3.2107,3.2107,3.2107,0,3.123,3.1308,3.1359,3.1415,3.1502,3.1532,3.1617,3.1653,3.1707,3.1769,3.1782,3.184,3.1879,3.1943,3.1968,3.2056,3.2075,3.2092,3.2097,3.2089,3.2086,3.2112,3.2106,3.2111,3.211,3.2109,3.2108,0,3.1315,3.1353,3.1452,3.1522,3.1541,3.1602,3.1661,3.1716,3.1748,3.1827,3.1847,3.1897,3.1973,3.201,3.2105,3.2122,3.222,3.2222,3.2198,3.2199,3.2247,3.2241,3.2401,3.2423,3.2308,3.2309,3.231,0,3.1382,3.1442,3.1518,3.156,3.1597,3.1666,3.1711,3.1744,3.179,3.1866,3.1911,3.1987,3.2049,3.217,3.2214,3.2286,3.2289,3.234,3.23,3.2289,3.2286,3.2281,3.2286,3.2347,3.2348,3.2349,3.2349,0,3.1498,3.1513,3.1578,3.1649,3.1703,3.1761,3.1818,3.1852,3.1893,3.1945,3.2022,3.207,3.2166,3.2241,3.2315,3.2353,3.2357,3.2362,3.2377,3.2368,3.235,3.2358,3.2214,3.2358,3.2357,3.2356,3.2356,3.2355,3.1574,3.1626,3.1687,3.1758,3.1804,3.1857,3.191,3.1949,3.2013,3.2093,3.2108,3.2189,3.225,3.235,3.239,3.2453,3.2442,3.2465,3.247,3.2474,3.2475,3.2342,3.2468,3.2468,3.2467,3.2467,3.2467,0,3.1687,3.1726,3.1792,3.187,3.1926,3.1926,3.1988,3.2035,3.2106,3.2162,3.2222,3.2309,3.2382,3.2432,3.2505,3.2546,3.255,3.2564,3.256,3.2568,3.2482,3.2461,3.2559,3.2559,3.2559,3.2559,3.2559,3.2559,3.1752,3.1839,3.1862,3.1972,3.201,3.2089,3.2124,3.2172,3.2217,3.2313,3.2373,3.2405,3.2458,3.2535,3.2601,3.2614,3.2639,3.2653,3.2665,3.2584,3.2574,3.2565,3.2544,3.2659,3.2659,3.2745,3.2745,3.2746]},{"header":{"parameterUnit":"m.s-1","parameterCategory":1,"la1":30.2991,"la2":30.254,"lo1":-89.0895,"lo2":-89.0444,"dy":0.0017,"dx":0.0017,"nx":28,"ny":28,"refTime":"2024-06-29T09:00:00:Z","depth":0,"parameterNumber":3,"parameterNumberName":"V-component_of_WINDS"},"data":[0,0,0,0,0,0,0,0,0,0,0,0,0,0,0,0,0,0,0,0,0,0,0,0,0,0,0,0,0,0,0,0,0,0,0,0,0,0,0,0,0,0,0,0,0,0,0,0,0,0,0,0,0,0,0,0,0,0,1.0626,1.0626,0,1.0696,1.0697,1.0697,1.0683,1.0682,1.0681,1.068,1.0752,1.0755,1.0758,0,0,0,0,0,0,0,0,0,0,0,0,0,1.0479,1.0482,1.0626,1.0627,1.0627,1.0696,1.0697,1.0698,1.0684,1.0682,1.068,1.0679,1.0751,1.0755,1.0758,0,0,0,0,0,0,0,0,0,0,0,0,0,1.0546,1.0483,1.0625,1.0629,1.063,1.0696,1.0697,1.0698,1.0684,1.0682,1.068,1.0678,1.075,1.0754,1.0759,1.0826,0,0,1.0773,1.0775,0,0,0,0,0,0,0,0,1.0542,1.0551,1.0627,1.0628,1.063,1.0679,1.0672,1.0741,1.0684,1.0663,1.068,1.0677,1.0729,1.0736,1.0753,1.083,1.0833,1.0774,1.0777,1.0779,1.078,0,0,0,0,0,0,0,1.0537,1.0548,1.0653,1.0628,1.063,1.0626,1.0634,1.0685,1.0706,1.0665,1.0664,1.0673,1.073,1.0748,1.0755,1.0834,1.0774,1.0778,1.0781,1.0783,1.0969,1.0971,0,0,0,0,0,0,1.0531,1.0544,1.0651,1.0656,1.058,1.0631,1.0639,1.0665,1.0706,1.071,1.0674,1.0672,1.0741,1.0749,1.0757,1.0838,1.0779,1.0783,1.0786,1.0967,1.0969,1.0972,0,0,0,0,0,0,1.0528,1.0541,1.0648,1.06,1.0613,1.0635,1.0665,1.0667,1.0686,1.0713,1.0716,1.069,1.074,1.075,1.0809,1.0841,1.0785,1.0789,1.0964,1.0967,1.097,1.1002,0,0,0,0,0,0,1.0524,1.054,1.0566,1.06,1.0616,1.0699,1.0667,1.067,1.0694,1.0692,1.0728,1.0732,1.0739,1.0802,1.0814,1.0846,1.0793,1.0961,1.0966,1.0969,1.0998,1.1006,1.1012,0,0,0,0,0,1.0519,1.0572,1.0568,1.0581,1.0649,1.0701,1.071,1.0717,1.0697,1.0723,1.074,1.0731,1.0835,1.0808,1.0821,1.0855,1.0959,1.0964,1.0969,1.0995,1.1004,1.1012,0,0,0,0,0,0,1.0542,1.0577,1.0572,1.0638,1.0667,1.0699,1.0732,1.0727,1.0762,1.0758,1.0766,1.0774,1.0834,1.085,1.082,1.0922,1.0894,1.0902,1.0909,1.0919,1.0925,1.092,1.0797,0,0,0,0,0,1.0555,1.0594,1.0623,1.0678,1.0693,1.071,1.0733,1.0736,1.0766,1.0779,1.08,1.0829,1.0868,1.0894,1.0932,1.1,1.1007,1.103,1.1037,1.1042,1.1049,1.1086,1.1096,1.0987,1.0987,1.0987,0,0,1.0582,1.0605,1.063,1.0684,1.0706,1.0747,1.0721,1.0765,1.0796,1.0785,1.0842,1.0858,1.0892,1.0955,1.0984,1.0971,1.108,1.1049,1.1053,1.1057,1.1092,1.1102,1.1111,1.0991,1.099,1.0989,0,0,1.0651,1.0673,1.0722,1.0745,1.0779,1.079,1.0801,1.0834,1.0845,1.0901,1.0894,1.093,1.0998,1.1022,1.1043,1.112,1.1113,1.1132,1.117,1.1205,1.1214,1.1221,1.1249,1.1258,1.1139,1.1139,1.1139,0,1.068,1.0742,1.0748,1.0793,1.0816,1.0808,1.0857,1.0879,1.0924,1.094,1.0925,1.1009,1.1031,1.1099,1.1118,1.1135,1.1149,1.1129,1.1212,1.122,1.1227,1.1253,1.1263,1.1141,1.1141,1.114,1.114,0,1.0776,1.0818,1.0853,1.0896,1.0924,1.097,1.0983,1.101,1.101,1.1022,1.108,1.1106,1.1148,1.1165,1.1165,1.1233,1.1224,1.121,1.1182,1.1239,1.1264,1.1274,1.1144,1.1143,1.1143,1.1142,0,0,1.0863,1.0908,1.0921,1.094,1.0976,1.1009,1.1055,1.1096,1.1119,1.115,1.1189,1.1246,1.1233,1.1257,1.126,1.1291,1.135,1.1273,1.1274,1.1287,1.1426,1.1436,1.1448,1.1345,1.1347,1.1349,1.1423,0,1.0936,1.1017,1.1023,1.1097,1.1136,1.1128,1.1168,1.1195,1.1207,1.1242,1.1256,1.1296,1.1276,1.129,1.1321,1.1337,1.1378,1.1331,1.1382,1.1383,1.1374,1.1461,1.1472,1.1541,1.1433,1.1435,1.1436,0,1.1033,1.1066,1.1143,1.1173,1.119,1.1226,1.1264,1.1297,1.1327,1.1334,1.136,1.1358,1.1405,1.1375,1.144,1.1408,1.1428,1.1439,1.1442,1.1447,1.1413,1.1469,1.1564,1.1574,1.1451,1.145,1.1449,0,1.1088,1.1152,1.1207,1.1223,1.126,1.1285,1.1302,1.133,1.1354,1.1387,1.1402,1.144,1.1461,1.149,1.1499,1.1476,1.1563,1.1534,1.157,1.157,1.159,1.1588,1.1689,1.1602,1.1602,1.1602,1.1602,0,1.117,1.1217,1.1232,1.1266,1.1318,1.1324,1.1376,1.1391,1.1416,1.1452,1.1447,1.1481,1.1491,1.1526,1.1533,1.1585,1.1595,1.1602,1.1603,1.1602,1.1601,1.1616,1.1612,1.1605,1.1604,1.1604,1.1603,0,1.1241,1.1253,1.1312,1.1341,1.135,1.1388,1.1413,1.1445,1.1456,1.1502,1.1513,1.153,1.1572,1.1583,1.1633,1.1638,1.1699,1.1696,1.1689,1.1689,1.1725,1.1721,1.1839,1.1855,1.1757,1.1758,1.1759,0,1.1293,1.1329,1.1362,1.1386,1.1403,1.1441,1.1466,1.1473,1.1498,1.1534,1.1562,1.1602,1.1635,1.1702,1.1719,1.1757,1.1755,1.1793,1.176,1.1758,1.1755,1.1753,1.1757,1.18,1.1801,1.1802,1.1802,0,1.1382,1.1386,1.1421,1.1458,1.1487,1.1517,1.1545,1.1565,1.1576,1.1604,1.1647,1.1672,1.1722,1.1763,1.1801,1.1817,1.1812,1.1812,1.1823,1.1823,1.1817,1.182,1.1706,1.181,1.1809,1.1808,1.1808,1.1808,1.1445,1.1477,1.1505,1.1544,1.1566,1.1592,1.1624,1.1638,1.1674,1.1715,1.1717,1.1763,1.179,1.1841,1.1859,1.1895,1.1884,1.1899,1.1903,1.1906,1.1909,1.1811,1.1902,1.1902,1.1902,1.1901,1.1901,0,1.1535,1.1552,1.1588,1.1627,1.1658,1.1649,1.168,1.1706,1.1746,1.1773,1.1805,1.1853,1.1892,1.1912,1.195,1.1975,1.1973,1.1985,1.1983,1.1987,1.1917,1.1905,1.1985,1.1985,1.1985,1.1985,1.1985,1.1985,1.1585,1.1638,1.1645,1.1708,1.1725,1.177,1.1788,1.1812,1.1833,1.1887,1.1919,1.1931,1.1955,1.1995,1.203,1.2035,1.2049,1.2063,1.2066,1.2001,1.1992,1.1984,1.1972,1.2066,1.2066,1.2133,1.2133,1.2134]}]]